Wind_Speed
15 15 17 18 20 21 22 22 22 22 23 23 23 21 20 19 17 17 16 16 16 17 16 17 17 18 19 20 20 20 20 21 22 22 23 23 23 23 24 25 25 25 25 25
14 15 16 17 18 20 20 21 21 22 23 24 23 22 21 20 18 16 16 16 17 17 17 17 19 20 21 21 21 21 21 22 23 23 23 23 22 23 24 25 25 26 25 26
13 14 14 15 17 19 19 19 20 21 21 22 23 22 21 19 17 17 17 17 17 17 18 18 19 20 21 22 22 23 23 23 23 22 23 23 23 24 25 26 26 26 26 27
13 13 14 14 15 16 18 18 18 19 20 20 21 20 18 18 17 17 17 18 17 17 18 19 19 20 21 22 22 22 23 24 24 24 24 24 24 24 25 25 26 27 28 28
13 13 13 14 14 15 16 18 18 17 19 19 19 21 19 19 18 18 18 18 18 19 19 19 19 20 21 21 22 22 23 23 22 22 23 24 24 25 25 26 26 27 28 28
12 12 12 13 13 14 15 16 18 18 19 19 18 19 19 18 18 18 18 18 18 19 19 20 19 20 20 21 21 21 22 22 22 22 23 24 24 25 25 25 26 27 28 28
10 10 11 12 13 13 14 15 17 18 18 19 19 19 18 17 18 18 18 18 18 19 20 19 19 20 21 22 21 21 21 21 22 22 23 24 24 24 25 25 26 27 28 29
9 9 10 11 13 13 13 14 16 16 16 17 18 18 17 17 18 18 18 18 19 19 19 19 20 21 22 22 22 21 21 22 22 23 24 24 24 23 24 25 26 26 27 28
9 9 10 11 12 14 15 16 17 17 18 18 17 17 16 17 18 18 18 18 18 18 18 18 20 21 22 22 22 22 20 20 21 23 23 23 23 23 24 24 25 26 26 26
10 11 11 12 13 15 16 16 17 18 19 18 17 16 16 16 18 19 18 18 18 18 18 19 21 20 20 21 20 20 19 19 20 21 22 23 23 23 24 25 25 25 24 24
11 12 12 14 15 16 17 17 18 19 19 19 18 16 17 16 16 17 18 17 17 18 19 20 20 19 19 20 20 18 18 19 19 20 22 22 23 23 23 23 23 22 22 23
12 13 13 15 16 17 18 18 18 19 19 19 19 18 17 17 16 17 17 17 17 17 18 19 19 18 18 19 18 18 18 19 19 20 22 22 22 22 22 22 22 22 22 22
13 14 14 14 15 17 18 18 18 19 19 19 19 18 17 17 17 17 16 16 16 17 18 18 17 17 17 17 17 18 18 18 19 20 20 21 21 21 21 21 22 22 22 21
14 15 15 15 15 16 17 17 18 18 18 19 18 18 17 16 16 16 15 16 16 17 17 16 15 15 15 16 16 17 18 18 19 19 19 20 20 20 20 20 21 21 20 20
14 14 15 15 16 16 16 17 17 17 18 18 17 17 16 16 16 15 15 16 16 16 16 15 14 14 14 15 16 16 17 17 17 17 17 18 19 19 19 18 19 19 19 19
14 15 15 15 15 16 17 16 16 17 18 18 17 16 15 15 15 15 15 15 15 15 14 14 14 14 14 14 15 15 15 15 15 15 16 17 17 17 17 17 18 18 18 18
15 14 15 15 15 16 16 16 16 16 16 17 17 17 16 15 15 15 15 14 14 14 14 13 13 13 13 13 13 13 13 13 13 14 15 16 16 16 16 16 17 17 17 17
16 15 16 16 15 15 14 14 14 14 15 16 16 15 15 14 14 14 14 13 12 11 11 11 11 11 12 11 11 11 12 13 13 14 15 15 16 15 15 15 16 16 15 15
15 15 16 16 15 14 13 13 13 13 14 14 15 14 14 14 13 13 13 12 11 11 10 9 10 11 11 10 10 10 11 12 12 13 14 14 15 15 15 15 15 14 14 15
14 14 15 15 15 14 12 12 13 13 13 13 13 14 13 12 12 11 11 11 10 9 8 8 9 9 10 10 10 10 10 11 12 12 13 13 13 13 13 13 13 13 14 14
13 13 13 13 13 13 12 12 12 12 12 11 12 12 11 11 10 10 10 10 9 8 7 7 8 9 9 9 9 9 10 11 11 12 12 12 13 13 13 12 12 13 13 14
12 12 12 13 12 12 12 12 11 11 11 10 10 10 10 10 9 9 8 8 7 6 6 6 7 7 8 8 8 9 10 11 11 11 11 12 12 12 12 12 12 13 13 14
12 12 12 13 12 12 11 11 10 10 9 9 8 8 8 8 7 6 5 5 5 5 5 5 6 7 7 8 8 9 10 11 11 11 11 11 12 12 11 11 12 13 13 13
12 12 12 11 11 11 10 9 9 8 7 7 6 6 6 6 5 5 5 4 4 5 5 5 5 5 6 7 7 8 9 10 10 10 10 11 11 11 11 12 12 13 13 13
12 11 11 10 10 10 9 8 8 7 7 5 4 4 4 4 4 4 3 3 3 4 4 4 4 5 6 6 7 7 8 9 9 9 9 10 10 11 12 12 12 12 13 13
11 10 10 9 9 9 8 8 7 7 5 4 4 4 3 3 3 3 2 2 3 3 3 4 5 5 5 6 6 7 7 8 8 8 9 10 11 11 11 12 13 13 12 13
Wind_Direction
220 221 224 227 230 233 237 241 244 246 248 250 253 256 261 259 264 266 270 275 276 280 282 282 284 283 284 285 284 285 287 288 286 285 286 286 288 287 286 287 288 289 288 288
220 221 225 229 233 237 241 244 245 245 249 253 256 260 261 262 263 267 272 275 279 281 282 282 283 287 288 286 284 288 290 289 287 286 285 284 287 287 288 288 289 289 289 289
226 227 230 235 237 238 241 243 243 244 250 256 259 260 263 266 266 269 273 275 278 280 282 286 287 289 290 290 289 290 290 290 286 285 284 287 287 286 288 289 289 289 290 291
230 232 237 240 240 241 242 242 247 250 249 254 259 262 260 265 268 270 276 277 277 280 282 286 288 290 291 292 293 292 291 290 286 284 287 288 288 288 289 290 290 290 291 293
228 231 233 234 238 241 242 245 249 253 254 258 262 265 264 267 269 271 274 276 278 280 283 285 287 289 292 293 293 293 292 289 286 287 288 289 289 288 289 290 291 293 294 294
227 228 230 232 235 241 246 247 250 254 257 259 262 266 268 271 272 274 275 277 280 281 282 285 286 289 292 296 294 292 291 289 288 290 291 290 289 289 289 290 291 293 294 295
227 228 231 233 234 240 246 250 254 256 257 262 263 267 271 270 272 276 277 278 281 284 283 283 285 288 292 295 292 293 293 291 290 293 294 291 291 291 290 290 291 293 295 296
239 233 237 240 241 245 247 254 260 264 266 267 266 269 273 275 277 278 278 278 283 284 282 283 285 290 292 292 291 292 292 292 294 297 297 295 294 296 296 294 294 295 297 297
249 239 240 243 245 245 248 253 260 266 270 274 273 276 278 279 280 278 280 280 282 283 282 286 289 291 291 289 289 289 292 294 296 297 297 296 295 297 298 298 297 297 298 300
253 253 248 249 249 248 252 256 260 264 271 276 277 282 287 284 281 278 280 281 280 281 283 287 290 290 290 289 288 290 294 297 299 299 299 297 296 298 298 298 300 300 301 303
262 264 259 258 255 257 258 262 264 267 270 275 280 285 288 289 284 282 282 282 283 282 284 287 288 289 290 291 293 293 296 299 301 303 303 302 302 303 301 302 302 302 305 306
264 268 266 264 263 265 267 266 267 267 270 275 281 286 286 288 287 285 285 285 283 284 286 286 286 287 290 293 294 297 299 303 306 308 308 306 307 307 306 305 303 304 304 306
266 270 272 268 267 265 267 267 266 266 269 272 277 283 284 288 290 289 287 286 287 288 289 287 287 289 291 292 295 298 302 306 308 309 310 311 311 309 308 307 306 305 306 307
272 276 276 274 273 270 267 268 268 268 270 273 275 279 282 288 291 290 288 287 289 292 291 289 288 290 292 294 297 299 302 304 305 307 312 313 313 312 309 309 310 310 310 309
272 275 274 272 271 272 269 268 270 274 275 275 276 278 282 286 289 288 289 292 292 290 291 290 291 292 294 296 298 301 303 303 304 307 312 315 315 315 314 314 314 315 314 314
269 272 274 274 272 272 272 270 269 271 274 278 279 281 285 288 290 289 288 291 292 289 290 290 291 293 297 298 300 303 306 306 309 311 315 317 319 319 318 318 318 320 320 320
273 275 277 280 281 277 273 274 275 275 275 277 279 282 283 285 287 287 286 286 285 284 285 288 291 294 299 301 302 307 308 310 314 316 318 318 318 319 319 319 320 321 324 324
274 275 278 281 282 280 280 279 281 280 278 280 282 282 281 284 286 287 287 286 286 287 285 285 292 297 304 304 305 309 310 315 318 319 320 320 319 321 322 321 322 324 328 333
273 275 279 282 283 284 284 284 280 278 278 281 282 283 284 285 285 287 289 287 285 286 287 287 295 300 305 308 310 315 317 320 322 322 323 324 325 323 322 324 325 329 333 337
273 274 277 279 281 283 285 284 280 278 278 279 279 281 282 283 285 290 291 285 281 282 288 294 300 304 307 312 316 319 322 325 326 328 330 333 334 333 332 333 335 337 339 340
275 276 275 276 278 284 284 286 284 279 280 278 276 275 277 281 287 293 295 291 286 283 286 295 302 306 310 316 319 322 326 331 333 334 336 339 340 341 341 340 341 343 343 343
275 276 276 277 279 287 289 289 284 279 279 278 276 275 275 278 286 292 297 297 293 287 292 300 304 305 311 316 320 325 329 333 336 339 341 343 343 343 343 344 346 349 350 351
271 274 278 278 279 284 285 285 283 279 278 277 275 277 276 275 281 289 297 299 299 301 303 304 305 306 312 317 322 327 331 333 336 340 343 346 347 348 350 352 353 354 355 355
266 271 274 276 277 277 278 279 280 279 278 275 274 275 275 274 281 281 289 297 309 316 307 304 308 313 318 320 324 328 333 336 338 342 346 349 351 357 359 357 353 353 355 356
261 267 270 272 274 272 272 276 278 281 281 278 277 280 277 272 279 284 284 304 319 326 323 312 310 314 323 328 334 338 339 343 344 347 351 355 357 358 358 357 353 352 355 356
253 261 263 265 267 268 264 267 272 279 282 276 274 279 277 271 278 277 287 313 329 336 334 327 326 328 332 335 338 342 347 353 360 1 359 359 358 358 357 357 357 357 357 357
Height
5828 5831 5832 5834 5837 5839 5840 5842 5844 5846 5847 5848 5849 5851 5852 5852 5853 5853 5853 5853 5853 5852 5851 5851 5851 5850 5850 5848 5847 5846 5845 5844 5843 5842 5840 5839 5837 5835 5834 5832 5830 5828 5826 5824
5828 5829 5831 5832 5834 5836 5838 5840 5842 5843 5843 5845 5846 5847 5848 5849 5850 5850 5850 5850 5850 5849 5848 5847 5847 5846 5845 5844 5843 5842 5840 5839 5838 5836 5834 5833 5831 5829 5828 5826 5824 5822 5820 5818
5826 5829 5829 5831 5832 5834 5836 5837 5839 5840 5840 5841 5842 5844 5845 5846 5847 5847 5847 5847 5846 5845 5844 5844 5843 5842 5841 5839 5838 5837 5835 5833 5832 5830 5829 5827 5826 5824 5822 5820 5818 5816 5814 5811
5825 5826 5828 5829 5830 5831 5833 5834 5835 5836 5837 5838 5839 5840 5842 5842 5843 5843 5843 5843 5842 5842 5841 5840 5839 5837 5836 5835 5832 5831 5830 5828 5826 5825 5823 5822 5820 5818 5816 5814 5812 5809 5807 5804
5823 5824 5825 5827 5828 5829 5831 5831 5832 5833 5834 5835 5835 5836 5839 5838 5839 5839 5839 5838 5838 5837 5836 5835 5834 5833 5831 5829 5827 5826 5825 5823 5821 5819 5818 5816 5814 5812 5810 5808 5805 5802 5800 5797
5821 5822 5823 5825 5826 5827 5828 5829 5829 5830 5831 5832 5833 5833 5834 5834 5835 5835 5834 5834 5833 5833 5832 5830 5829 5828 5826 5824 5823 5821 5820 5818 5816 5814 5812 5810 5808 5806 5803 5801 5798 5796 5793 5790
5820 5821 5821 5822 5823 5824 5826 5827 5828 5827 5828 5829 5829 5829 5831 5830 5831 5830 5830 5830 5829 5828 5827 5826 5825 5824 5822 5820 5818 5816 5815 5813 5811 5809 5806 5804 5801 5799 5796 5794 5792 5789 5786 5783
5818 5819 5820 5821 5822 5822 5823 5825 5826 5826 5826 5826 5826 5826 5828 5827 5826 5826 5826 5825 5824 5823 5822 5821 5820 5818 5817 5815 5812 5811 5809 5808 5805 5803 5801 5798 5796 5793 5791 5788 5785 5782 5779 5776
5817 5818 5819 5819 5819 5820 5821 5821 5823 5823 5822 5823 5823 5824 5824 5823 5822 5822 5821 5821 5820 5819 5818 5817 5815 5813 5812 5809 5807 5806 5804 5802 5800 5797 5795 5792 5790 5787 5785 5782 5779 5776 5773 5770
5815 5816 5816 5816 5817 5818 5818 5819 5819 5819 5819 5819 5819 5820 5820 5819 5818 5818 5817 5816 5815 5814 5813 5812 5811 5809 5807 5805 5802 5800 5799 5797 5794 5792 5789 5786 5784 5781 5778 5776 5773 5770 5767 5763
5813 5813 5814 5814 5814 5814 5815 5815 5815 5815 5816 5816 5815 5818 5816 5815 5814 5813 5813 5812 5811 5810 5808 5807 5806 5804 5803 5801 5798 5796 5794 5792 5789 5787 5784 5781 5778 5775 5773 5770 5767 5764 5761 5758
5810 5810 5810 5810 5810 5810 5811 5811 5811 5812 5812 5811 5811 5815 5811 5811 5809 5808 5808 5807 5806 5805 5804 5802 5801 5799 5798 5796 5794 5792 5790 5787 5785 5782 5779 5776 5772 5770 5767 5765 5762 5758 5755 5753
5808 5807 5807 5807 5809 5808 5807 5806 5807 5807 5807 5807 5807 5810 5807 5806 5804 5803 5803 5802 5801 5800 5798 5797 5795 5794 5792 5791 5789 5787 5785 5783 5780 5777 5774 5771 5768 5765 5762 5760 5757 5753 5750 5747
5804 5804 5804 5804 5803 5803 5803 5803 5803 5803 5803 5802 5802 5803 5802 5801 5800 5799 5798 5797 5796 5795 5793 5792 5791 5789 5788 5786 5785 5783 5780 5778 5775 5773 5769 5766 5764 5761 5758 5755 5752 5749 5746 5743
5801 5801 5800 5799 5799 5799 5799 5799 5799 5798 5798 5797 5798 5797 5798 5797 5796 5795 5794 5792 5791 5790 5789 5787 5786 5785 5783 5782 5780 5778 5776 5774 5772 5769 5766 5763 5760 5757 5754 5751 5748 5745 5742 5738
5798 5797 5797 5796 5795 5794 5794 5794 5794 5794 5793 5793 5793 5793 5793 5792 5791 5790 5789 5788 5787 5786 5785 5784 5782 5781 5779 5778 5776 5775 5773 5770 5768 5765 5762 5760 5757 5754 5751 5748 5745 5742 5738 5735
5794 5793 5793 5792 5791 5790 5790 5791 5790 5790 5789 5789 5788 5789 5788 5788 5787 5786 5785 5784 5783 5782 5781 5780 5779 5777 5776 5775 5773 5771 5769 5767 5764 5762 5759 5756 5754 5751 5748 5745 5742 5739 5736 5732
5790 5789 5788 5788 5788 5787 5789 5787 5786 5785 5785 5784 5784 5783 5783 5783 5783 5782 5781 5780 5779 5778 5777 5776 5775 5774 5773 5771 5770 5768 5766 5764 5762 5759 5756 5754 5751 5748 5745 5742 5739 5737 5734 5730
5786 5785 5784 5784 5783 5783 5784 5783 5782 5781 5781 5780 5780 5780 5779 5779 5778 5778 5777 5776 5775 5775 5774 5773 5772 5771 5770 5769 5767 5765 5763 5761 5759 5756 5754 5751 5748 5745 5743 5740 5737 5735 5732 5729
5782 5781 5781 5780 5779 5779 5781 5779 5777 5778 5777 5777 5776 5775 5775 5775 5775 5775 5773 5772 5771 5771 5770 5770 5769 5769 5768 5766 5765 5763 5761 5759 5757 5754 5752 5749 5746 5743 5741 5738 5736 5733 5730 5727
5778 5777 5777 5776 5775 5775 5776 5775 5775 5775 5775 5773 5772 5772 5772 5771 5772 5771 5769 5768 5768 5768 5767 5767 5767 5766 5765 5764 5762 5761 5759 5757 5755 5753 5750 5747 5745 5742 5740 5737 5734 5732 5729 5726
5774 5774 5774 5773 5773 5775 5773 5771 5771 5771 5769 5769 5769 5769 5768 5768 5768 5767 5766 5765 5765 5765 5765 5765 5764 5764 5763 5762 5761 5759 5758 5756 5753 5751 5749 5746 5744 5741 5739 5736 5734 5731 5728 5725
5771 5772 5771 5771 5772 5770 5769 5768 5768 5767 5766 5766 5766 5766 5765 5765 5765 5765 5764 5764 5764 5764 5763 5763 5763 5762 5761 5760 5759 5758 5756 5754 5752 5750 5748 5745 5743 5741 5738 5736 5733 5730 5728 5725
5768 5768 5767 5767 5767 5766 5766 5765 5765 5764 5764 5763 5763 5763 5763 5763 5763 5763 5763 5762 5762 5762 5761 5761 5761 5760 5759 5758 5757 5756 5755 5753 5751 5749 5747 5745 5743 5740 5738 5735 5733 5730 5728 5725
5764 5764 5764 5764 5764 5763 5763 5763 5763 5762 5761 5761 5761 5761 5761 5761 5761 5761 5761 5761 5761 5760 5760 5760 5759 5759 5758 5757 5756 5755 5753 5752 5750 5748 5746 5744 5742 5740 5738 5735 5733 5730 5728 5725
5761 5761 5761 5762 5762 5761 5762 5761 5761 5760 5760 5760 5760 5760 5759 5760 5760 5760 5760 5760 5760 5759 5759 5759 5758 5757 5757 5756 5755 5754 5753 5751 5749 5747 5746 5744 5742 5740 5738 5735 5733 5730 5728 5725